Regional Weather Roundup
Issued by NWS Upton, NY

Current Version | Previous Version | Graphics & Text | Print | Product List | Glossary Off
Versions: 1 2 3 4 5 6 7 8 9 10 11 12 13 14 15 16 17 18 19 20 21 22 23 24 25 26 27 28 29 30 31 32 33 34 35 36 37 38 39 40 41 42 43 44 45 46 47 48 49 50

000
ASUS41 KOKX 192305
RWROKX

REGIONAL WEATHER ROUNDUP
NATIONAL WEATHER SERVICE NEW YORK NY
700 PM EDT TUE AUG 19 2014

NOTE: "FAIR" INDICATES FEW OR NO CLOUDS BELOW 12,000 FEET WITH NO
SIGNIFICANT WEATHER AND/OR OBSTRUCTIONS TO VISIBILITY.

NYZ071-072-176-178-NJZ106-104-200000-
NEW YORK CITY METRO AREA


CITY           SKY/WX    TMP DP  RH WIND       PRES   REMARKS
CENTRAL PARK   CLEAR     75  62  64 VRB3      29.92R
LAGUARDIA APRT PTCLDY    76  62  62 S10       29.88S
KENNEDY INTL   MOCLDY    75  65  70 SE9       29.90S
NEWARK/LIBERTY CLEAR     77  65  66 SE7       29.89R
BRNX BOT. GARD   N/A     75  63  64 SE1       29.91R
TETERBORO      CLEAR     78  63  59 S7        29.87R
$$

NYZ177-179-078>081-200000-
LONG ISLAND NEW YORK

CITY           SKY/WX    TMP DP  RH WIND       PRES   REMARKS
FARMINGDALE    CLEAR     72  64  76 S8        29.91R
ISLIP          PTCLDY    72  63  73 SE8       29.89S
SHIRLEY        CLEAR     71  64  78 SE6       29.92S
WESTHAMPTON    CLEAR     71  63  75 E5        29.93S
MONTAUK POINT    N/A     69  62  78 S5        29.93S
$$

NYZ052-065-067-200000-
HUDSON VALLEY

CITY           SKY/WX    TMP DP  RH WIND       PRES   REMARKS
WHITE PLAINS   CLEAR     73  60  63 E7        29.90R
NEWBURGH       CLEAR     77  57  50 VRB6      29.90S
MONTGOMERY     CLEAR     78  56  46 SE7       29.88S
POUGHKEEPSIE   CLEAR     78  57  48 SE5       29.87S
ALBANY         PTCLDY    76  52  43 NE5       29.90S
$$

NJZ001-105-106-008-010-013-015-019>022-104-200000-
NEW JERSEY

CITY           SKY/WX    TMP DP  RH WIND       PRES   REMARKS
NEWARK/LIBERTY CLEAR     77  65  66 SE7       29.89R
TETERBORO      CLEAR     78  63  59 S7        29.87R
CALDWELL       CLEAR     77  59  53 SE9       29.88S
MORRISTOWN     PTCLDY    79  61  53 S6        29.88R
SOMERVILLE     MOCLDY    80  64  58 SE5       29.86R
LINDEN         FAIR      81  67  61 SE7       29.90R
SUSSEX         CLEAR     83  55  38 CALM      29.88S
ANDOVER          N/A     78  58  49 CALM      29.89R
TRENTON        CLEAR     78  63  59 SE7       29.87S
MILLVILLE      CLEAR     77  63  61 SE8       29.88R
ATLANTIC CITY  CLEAR     75  63  66 E7        29.89R
WRIGHTSTOWN    CLEAR     76  63  65 SE7       29.86S
TOMS RIVER     CLEAR     75  63  64 SE5       29.90R
BELMAR         CLEAR     75  59  57 SE7       29.90S
$$

PAZ047>061-062-071-200000-
EASTERN PENNSYLVANIA

CITY           SKY/WX    TMP DP  RH WIND       PRES   REMARKS
PHILADELPHIA   MOCLDY    80  65  59 SE5       29.87R
ALLENTOWN      PTCLDY    80  59  48 W5        29.88R
SCRANTON       PTCLDY    78  60  53 VRB3      29.88S
$$

CTZ002-004>006-009-010-012-RIZ004-006-007-MAZ004-011-015-200000-
SOUTHERN NEW ENGLAND
 IN CT

CITY           SKY/WX    TMP DP  RH WIND       PRES   REMARKS
BRADLEY INTL   PTCLDY    78  52  40 SE7       29.88S
HARTFORD       CLEAR     76  55  48 S7        29.88S
DANBURY        CLEAR     75  57  53 S7        29.91S
WTRBRY/OXFORD  PTCLDY    73  55  53 SW5       29.94R
BRIDGEPORT     CLEAR     74  61  63 SE8       29.90S
MERIDEN        CLEAR     75  54  47 S7        29.90R
NEW HAVEN      PTCLDY    75  60  59 SE8       29.91R
CHESTER        FAIR      73  57  56 S5        29.92S
GROTON         CLEAR     69  62  78 S8        29.90S
WILLIMANTIC    CLEAR     76  51  41 NE5       29.91S

 IN RI

CITY           SKY/WX    TMP DP  RH WIND       PRES   REMARKS
PROVIDENCE     PTCLDY    73  54  51 S10       29.91S
BLOCK ISLAND   CLEAR     70  59  68 S7        29.93R
WESTERLY       CLEAR     71  60  68 S6        29.93R

 IN MA

CITY           SKY/WX    TMP DP  RH WIND       PRES   REMARKS
BOSTON         CLEAR     67  56  67 E9        29.92S
WORCESTER      CLEAR     72  52  49 W5        29.94S
WESTFIELD      CLEAR     76  56  49 SE3       29.89S
PROVINCETOWN   CLEAR     68  54  60 MISG      29.94R
NANTUCKET      CLEAR     64  57  78 VRB5      29.94R
$$

ANZ330-335-338-340-345-350-353-355-200000-
COASTAL MARINE OBSERVATIONS


STATION/POSITION TIME  SKY/WX   TEMP    WIND        PRES    VSBY  WAVE
                                AIR SEA DIR/SP/G                  HT/PER
                 (UTC)          (F)     (DEG/KT/KT) (MB)    (MI)  (FT/S)
NY HARB ENTRANCE NOT AVBL
4S FIRE IS       NOT AVBL
23SW MTP         2300            69 70              1012.7          2/ 9
HUDSON CANYON    2300            73 75   80/ 10/ 12 1012.1          2/ 9
EXECUTION ROCKS  2300            78 75  170/  8/ 10   N/A
WESTERN LI SOUND 2300            74      90/ 10/ 12   N/A           1
CENTRAL LI SOUND 2200            73 73  170/ 10/ 12   N/A           0
EASTERN LI SOUND 2200            74 68  170/  8/ 10   N/A
ROBBINS REEF     2300            73     150/ 12/ 14   N/A
$$


>>>>>>>>>>>>>>>>>>>>>>>>>>>> KEY <<<<<<<<<<<<<<<<<<<<<<<<<<<
>                                                          <
>     SKY/WX - SKY CONDITION/PRESENT WEATHER               <
>     TMP    - TEMPERATURE IN FAHRENHEIT                   <
>     DP     - DEWPOINT IN FAHRENHEIT                      <
>     RH     - RELATIVE HUMIDITY IN PERCENT                <
>     WIND   - DIRECTION AND SPEED IN MPH                  <
>     PRES   - MEAN SEA LEVEL PRESSURE IN INCHES OF HG     <
>     WCI    - WIND CHILL INDEX                            <
>     VSB    - VISIBILITY IN MILES                         <
>     HX     - HEAT INDEX                                  <
>     TC     - TEMPERATURE IN CELSIUS                      <
>     VRB    - VARIABLE WIND DIRECTION                     <
>                                                          <
>>>>>>>>>>>>>>>>>>>>>>>>>>>> KEY <<<<<<<<<<<<<<<<<<<<<<<<<<<





USA.gov is the U.S. government's official web portal to all federal, state and local government web resources and services.